STARLINK-1312 (45398 NORAD) Tracking and Keplerian Element Data

This shows tracking and keplerian element data for the satellite.

Feedback or suggestion? Click here.




ElementValue
Catalog45398
NameSTARLINK-1312
Epoch Orbit1149
Epoch Day149.25001157
Epoch Year2020
RAAN268.2845
Inclination52.9978
Eccentricity0.0003391
Argument of Perigee68.8385
Mean Anonmoly322.5955
Mean Motion15.48094329
Decay Rate0.05655591
L11 45398U 20019AQ 20149.25001157 .05655591 00000-0 91854-1 0 9992
L22 45398 52.9978 268.2845 0003391 68.8385 322.5955 15.48094329 11491

Live tracking and technical data element details for STARLINK-1312 (NORAD 45398). STARLINK-1312 can be tracked NOW for your location showing map with azimuth and elevation plus other details from your city location.

Track the satellite on the map from your city or location and see movement details for azimuth, elevation, latitude, longitude, range, height, and movement on the map or in text.







IsCatalogInMostPopularTable: catalog: 45398, numindb: 18
Update: records affected: 1



GetName: 45398 STARLINK-1312

Hit Count: updated at: Sat, 30 May 2020 14:16:40 GMT